Time,TemperatureF,DewpointF,PressureIn,WindDirection,WindDirectionDegrees,WindSpeedMPH,WindSpeedGustMPH,Humidity,HourlyPrecipIn,Conditions,Clouds,dailyrainin,SoftwareType,DateUTC
2013-08-31 00:03:00,71.2,68.2,29.86,NE,41,5.0,15.0,90,0.00,OVC,OVC,0.00,WeatherDisplay:10.37,2013-08-31 05:03:00,
2013-08-31 00:13:00,70.9,68.1,29.86,ENE,70,3.0,14.0,91,0.00,OVC,OVC,0.00,WeatherDisplay:10.37,2013-08-31 05:13:00,
2013-08-31 00:23:00,70.7,68.3,29.86,East,86,2.0,12.0,92,0.00,OVC,OVC,0.00,WeatherDisplay:10.37,2013-08-31 05:23:00,
2013-08-31 00:33:00,70.3,67.6,29.86,ENE,65,7.0,10.0,91,0.00,OVC,OVC,0.00,WeatherDisplay:10.37,2013-08-31 05:33:00,
2013-08-31 00:43:00,70.0,66.9,29.86,NE,53,7.0,14.0,90,0.00,OVC,OVC,0.00,WeatherDisplay:10.37,2013-08-31 05:43:00,
2013-08-31 00:53:00,69.8,65.4,29.85,NE,52,8.0,16.0,86,0.00,OVC,OVC,0.00,WeatherDisplay:10.37,2013-08-31 05:53:00,
2013-08-31 01:03:00,69.4,65.1,29.85,NE,40,2.0,10.0,86,0.00,OVC,OVC,0.00,WeatherDisplay:10.37,2013-08-31 06:03:00,
2013-08-31 01:13:00,69.1,65.0,29.85,NNE,24,5.0,12.0,87,0.00,OVC,OVC,0.00,WeatherDisplay:10.37,2013-08-31 06:13:00,
2013-08-31 01:23:00,68.7,65.0,29.85,NNE,31,5.0,12.0,88,0.00,OVC,OVC,0.00,WeatherDisplay:10.37,2013-08-31 06:23:00,
2013-08-31 01:33:00,68.5,64.8,29.85,East,90,1.0,7.0,88,0.00,OVC,OVC,0.00,WeatherDisplay:10.37,2013-08-31 06:33:00,
2013-08-31 01:43:00,68.5,65.2,29.85,NE,44,2.0,9.0,89,0.00,OVC,OVC,0.00,WeatherDisplay:10.37,2013-08-31 06:43:00,
2013-08-31 01:53:00,68.4,65.0,29.85,East,84,1.0,7.0,89,0.00,OVC,OVC,0.00,WeatherDisplay:10.37,2013-08-31 06:53:00,
2013-08-31 02:03:00,68.2,65.1,29.85,ENE,59,1.0,5.0,90,0.00,OVC,OVC,0.00,WeatherDisplay:10.37,2013-08-31 07:03:00,
2013-08-31 02:13:00,68.2,65.1,29.85,East,80,2.0,5.0,90,0.00,OVC,OVC,0.00,WeatherDisplay:10.37,2013-08-31 07:13:00,
2013-08-31 02:23:00,68.2,65.1,29.86,ENE,61,2.0,7.0,90,0.00,OVC,OVC,0.00,WeatherDisplay:10.37,2013-08-31 07:23:00,
2013-08-31 02:33:00,68.2,65.5,29.86,NE,56,1.0,7.0,91,0.00,OVC,OVC,0.00,WeatherDisplay:10.37,2013-08-31 07:33:00,
2013-08-31 02:43:00,68.0,65.3,29.87,NE,53,0.0,6.0,91,0.00,OVC,OVC,0.00,WeatherDisplay:10.37,2013-08-31 07:43:00,
2013-08-31 02:53:00,68.0,65.3,29.86,ENE,59,2.0,7.0,91,0.00,OVC,OVC,0.00,WeatherDisplay:10.37,2013-08-31 07:53:00,
2013-08-31 03:03:00,68.0,65.3,29.87,ENE,75,1.0,5.0,91,0.00,OVC,OVC,0.00,WeatherDisplay:10.37,2013-08-31 08:03:00,
2013-08-31 03:13:00,68.0,65.3,29.86,ENE,68,1.0,6.0,91,0.00,OVC,OVC,0.00,WeatherDisplay:10.37,2013-08-31 08:13:00,
2013-08-31 03:23:00,67.8,65.1,29.87,North,5,2.0,5.0,91,0.00,OVC,OVC,0.00,WeatherDisplay:10.37,2013-08-31 08:23:00,
2013-08-31 03:33:00,67.8,65.1,29.87,NNE,12,1.0,8.0,91,0.00,OVC,OVC,0.00,WeatherDisplay:10.37,2013-08-31 08:33:00,
2013-08-31 03:43:00,67.8,65.1,29.87,NNE,16,3.0,10.0,91,0.00,OVC,OVC,0.00,WeatherDisplay:10.37,2013-08-31 08:43:00,
2013-08-31 03:53:00,67.8,65.1,29.87,NNW,348,1.0,3.0,91,0.00,OVC,OVC,0.00,WeatherDisplay:10.37,2013-08-31 08:53:00,
2013-08-31 04:03:00,67.8,65.1,29.88,NNE,20,0.0,5.0,91,0.00,OVC,OVC,0.00,WeatherDisplay:10.37,2013-08-31 09:03:00,
2013-08-31 04:13:00,67.7,65.0,29.88,NNW,346,0.0,3.0,91,0.00,OVC,OVC,0.00,WeatherDisplay:10.37,2013-08-31 09:13:00,
2013-08-31 04:23:00,67.6,65.2,29.85,NE,36,2.0,8.0,92,0.00,OVC,OVC,0.00,WeatherDisplay:10.37,2013-08-31 09:23:00,
2013-08-31 04:33:00,67.3,65.2,29.84,ENE,69,2.0,7.0,93,0.00,OVC,OVC,0.00,WeatherDisplay:10.37,2013-08-31 09:33:00,
2013-08-31 04:43:00,67.1,65.3,29.83,NE,38,2.0,10.0,94,0.00,OVC,OVC,0.00,WeatherDisplay:10.37,2013-08-31 09:43:00,
2013-08-31 04:53:00,66.8,65.1,29.84,East,98,1.0,9.0,94,0.00,OVC,OVC,0.00,WeatherDisplay:10.37,2013-08-31 09:53:00,
2013-08-31 05:03:00,66.6,64.8,29.86,NNE,14,2.0,5.0,94,0.00,SCT,SCT,0.00,WeatherDisplay:10.37,2013-08-31 10:03:00,
2013-08-31 05:13:00,66.4,64.9,29.86,ENE,58,2.0,5.0,95,0.00,SCT,SCT,0.00,WeatherDisplay:10.37,2013-08-31 10:13:00,
2013-08-31 05:23:00,66.2,64.7,29.85,ENE,64,0.0,6.0,95,0.00,SCT,SCT,0.00,WeatherDisplay:10.37,2013-08-31 10:23:00,
2013-08-31 05:33:00,65.8,64.6,29.85,NNE,28,2.0,7.0,96,0.00,SCT,SCT,0.00,WeatherDisplay:10.37,2013-08-31 10:33:00,
2013-08-31 05:43:00,65.5,64.9,29.83,NE,43,2.0,8.0,98,0.00,SCT,SCT,0.00,WeatherDisplay:10.37,2013-08-31 10:43:00,
2013-08-31 05:53:00,65.3,65.0,29.83,NE,46,2.0,8.0,99,0.00,SCT,SCT,0.00,WeatherDisplay:10.37,2013-08-31 10:53:00,
2013-08-31 06:03:00,65.1,64.8,29.83,NE,35,1.0,8.0,99,0.00,SCT,SCT,0.00,WeatherDisplay:10.37,2013-08-31 11:03:00,
2013-08-31 06:13:00,65.1,64.8,29.83,ENE,58,2.0,12.0,99,0.00,SCT,SCT,0.00,WeatherDisplay:10.37,2013-08-31 11:13:00,
2013-08-31 06:23:00,65.0,64.7,29.84,NE,34,3.0,10.0,99,0.00,SCT,SCT,0.00,WeatherDisplay:10.37,2013-08-31 11:23:00,
2013-08-31 06:33:00,65.1,64.8,29.85,ENE,61,1.0,7.0,99,0.00,SCT,SCT,0.00,WeatherDisplay:10.37,2013-08-31 11:33:00,
2013-08-31 06:43:00,65.6,65.3,29.85,ENE,74,1.0,5.0,99,0.00,SCT,SCT,0.00,WeatherDisplay:10.37,2013-08-31 11:43:00,
2013-08-31 06:53:00,65.8,65.3,29.86,NE,53,2.0,6.0,98,0.00,SCT,SCT,0.00,WeatherDisplay:10.37,2013-08-31 11:53:00,
2013-08-31 07:03:00,66.2,65.6,29.86,NE,43,0.0,2.0,98,0.00,BKN,BKN,0.00,WeatherDisplay:10.37,2013-08-31 12:03:00,
2013-08-31 07:13:00,66.3,65.4,29.87,ENE,68,2.0,6.0,97,0.00,BKN,BKN,0.00,WeatherDisplay:10.37,2013-08-31 12:13:00,
2013-08-31 07:23:00,66.6,65.7,29.87,ENE,68,1.0,3.0,97,0.00,BKN,BKN,0.00,WeatherDisplay:10.37,2013-08-31 12:23:00,
2013-08-31 07:33:00,67.2,66.0,29.86,ESE,112,1.0,7.0,96,0.00,BKN,BKN,0.00,WeatherDisplay:10.37,2013-08-31 12:33:00,
2013-08-31 07:43:00,68.4,66.0,29.86,ENE,72,3.0,12.0,92,0.00,BKN,BKN,0.00,WeatherDisplay:10.37,2013-08-31 12:43:00,
2013-08-31 07:53:00,68.2,65.1,29.87,ENE,69,3.0,8.0,90,0.00,BKN,BKN,0.00,WeatherDisplay:10.37,2013-08-31 12:53:00,
2013-08-31 08:03:00,68.0,65.3,29.87,East,86,5.0,8.0,91,0.00,OVC,OVC,0.00,WeatherDisplay:10.37,2013-08-31 13:03:00,
2013-08-31 08:13:00,67.7,65.6,29.87,ENE,66,1.0,7.0,93,0.00,OVC,OVC,0.00,WeatherDisplay:10.37,2013-08-31 13:13:00,
2013-08-31 08:23:00,67.6,65.5,29.87,ENE,62,1.0,10.0,93,0.00,OVC,OVC,0.00,WeatherDisplay:10.37,2013-08-31 13:23:00,
2013-08-31 08:33:00,67.3,65.8,29.88,North,11,2.0,7.0,95,0.00,OVC,OVC,0.00,WeatherDisplay:10.37,2013-08-31 13:33:00,
2013-08-31 08:43:00,67.5,66.0,29.88,ENE,64,1.0,3.0,95,0.00,OVC,OVC,0.00,WeatherDisplay:10.37,2013-08-31 13:43:00,
2013-08-31 08:53:00,67.5,66.0,29.87,ENE,71,3.0,8.0,95,0.00,OVC,OVC,0.00,WeatherDisplay:10.37,2013-08-31 13:53:00,
2013-08-31 09:03:00,68.0,66.2,29.86,East,93,2.0,6.0,94,0.00,BKN,BKN,0.00,WeatherDisplay:10.37,2013-08-31 14:03:00,
2013-08-31 09:13:00,68.4,65.9,29.86,ENE,72,3.0,7.0,92,0.00,BKN,BKN,0.00,WeatherDisplay:10.37,2013-08-31 14:13:00,
2013-08-31 09:23:00,68.8,66.1,29.86,NE,47,2.0,5.0,91,0.00,BKN,BKN,0.00,WeatherDisplay:10.37,2013-08-31 14:23:00,
2013-08-31 09:33:00,69.9,66.5,29.86,ENE,70,5.0,9.0,89,0.00,BKN,BKN,0.00,WeatherDisplay:10.37,2013-08-31 14:33:00,
2013-08-31 09:43:00,72.8,67.0,29.85,NE,53,6.0,9.0,82,0.00,BKN,BKN,0.00,WeatherDisplay:10.37,2013-08-31 14:43:00,
2013-08-31 09:53:00,73.8,67.2,29.85,NE,53,5.0,9.0,80,0.00,BKN,BKN,0.00,WeatherDisplay:10.37,2013-08-31 14:53:00,
2013-08-31 10:03:00,75.4,67.3,29.86,ENE,67,5.0,10.0,76,0.00,SCT,SCT,0.00,WeatherDisplay:10.37,2013-08-31 15:03:00,
2013-08-31 10:13:00,76.0,67.5,29.86,NE,39,2.0,7.0,75,0.00,SCT,SCT,0.00,WeatherDisplay:10.37,2013-08-31 15:13:00,
2013-08-31 10:23:00,75.3,68.0,29.86,NE,50,1.0,7.0,78,0.00,SCT,SCT,0.00,WeatherDisplay:10.37,2013-08-31 15:23:00,
2013-08-31 10:33:00,76.8,67.9,29.86,North,7,2.0,8.0,74,0.00,SCT,SCT,0.00,WeatherDisplay:10.37,2013-08-31 15:33:00,
2013-08-31 10:43:00,75.7,67.9,29.86,NE,34,3.0,7.0,77,0.00,SCT,SCT,0.00,WeatherDisplay:10.37,2013-08-31 15:43:00,
2013-08-31 10:53:00,75.5,67.8,29.85,ENE,69,6.0,10.0,77,0.00,SCT,SCT,0.00,WeatherDisplay:10.37,2013-08-31 15:53:00,
2013-08-31 11:03:00,76.8,67.9,29.85,ENE,71,3.0,7.0,74,0.00,BKN,BKN,0.00,WeatherDisplay:10.37,2013-08-31 16:03:00,
2013-08-31 11:13:00,77.8,67.6,29.85,SE,138,2.0,9.0,71,0.00,BKN,BKN,0.00,WeatherDisplay:10.37,2013-08-31 16:13:00,
2013-08-31 11:23:00,77.7,67.9,29.86,East,92,1.0,7.0,72,0.00,BKN,BKN,0.00,WeatherDisplay:10.37,2013-08-31 16:23:00,
2013-08-31 11:33:00,77.4,68.0,29.85,North,360,0.0,7.0,73,0.00,BKN,BKN,0.00,WeatherDisplay:10.37,2013-08-31 16:33:00,
2013-08-31 11:43:00,76.8,68.3,29.85,NNE,25,2.0,8.0,75,0.00,BKN,BKN,0.00,WeatherDisplay:10.37,2013-08-31 16:43:00,
2013-08-31 11:53:00,77.2,68.2,29.85,NE,48,5.0,9.0,74,0.00,BKN,BKN,0.00,WeatherDisplay:10.37,2013-08-31 16:53:00,
2013-08-31 12:03:00,78.1,68.7,29.85,ESE,113,0.0,7.0,73,0.00,BKN,BKN,0.00,WeatherDisplay:10.37,2013-08-31 17:03:00,
2013-08-31 12:13:00,77.9,67.8,29.85,East,88,2.0,9.0,71,0.00,BKN,BKN,0.00,WeatherDisplay:10.37,2013-08-31 17:13:00,
2013-08-31 12:23:00,78.1,68.7,29.84,ENE,57,5.0,8.0,73,0.00,BKN,BKN,0.00,WeatherDisplay:10.37,2013-08-31 17:23:00,
2013-08-31 12:33:00,78.6,68.8,29.83,ENE,59,2.0,8.0,72,0.00,BKN,BKN,0.00,WeatherDisplay:10.37,2013-08-31 17:33:00,
2013-08-31 12:43:00,80.1,68.6,29.83,NNE,21,3.0,8.0,68,0.00,BKN,BKN,0.00,WeatherDisplay:10.37,2013-08-31 17:43:00,
2013-08-31 12:53:00,79.5,68.9,29.83,NE,38,2.0,13.0,70,0.00,BKN,BKN,0.00,WeatherDisplay:10.37,2013-08-31 17:53:00,
2013-08-31 13:03:00,79.0,68.4,29.84,ENE,64,5.0,10.0,70,0.00,BKN,BKN,0.00,WeatherDisplay:10.37,2013-08-31 18:03:00,
2013-08-31 13:13:00,79.1,68.5,29.84,NE,48,2.0,10.0,70,0.00,BKN,BKN,0.00,WeatherDisplay:10.37,2013-08-31 18:13:00,
2013-08-31 13:23:00,79.1,68.9,29.84,NNE,33,5.0,10.0,71,0.00,BKN,BKN,0.00,WeatherDisplay:10.37,2013-08-31 18:23:00,
2013-08-31 13:33:00,82.2,69.2,29.84,ENE,63,2.0,6.0,65,0.00,BKN,BKN,0.00,WeatherDisplay:10.37,2013-08-31 18:33:00,
2013-08-31 13:43:00,82.4,68.1,29.84,ENE,78,5.0,14.0,62,0.00,BKN,BKN,0.00,WeatherDisplay:10.37,2013-08-31 18:43:00,
2013-08-31 13:53:00,79.0,68.4,29.84,East,95,5.0,12.0,70,0.00,BKN,BKN,0.00,WeatherDisplay:10.37,2013-08-31 18:53:00,
2013-08-31 14:03:00,78.3,68.5,29.83,ENE,58,5.0,15.0,72,0.00,BKN,BKN,0.00,WeatherDisplay:10.37,2013-08-31 19:03:00,
2013-08-31 14:13:00,80.1,69.4,29.84,ENE,58,3.0,8.0,70,0.00,BKN,BKN,0.00,WeatherDisplay:10.37,2013-08-31 19:13:00,
2013-08-31 14:23:00,80.4,68.9,29.83,SE,142,3.0,14.0,68,0.00,BKN,BKN,0.00,WeatherDisplay:10.37,2013-08-31 19:23:00,
2013-08-31 14:33:00,79.3,68.6,29.83,East,99,6.0,10.0,70,0.00,BKN,BKN,0.00,WeatherDisplay:10.37,2013-08-31 19:33:00,
2013-08-31 14:43:00,78.9,69.1,29.83,ESE,110,2.0,10.0,72,0.00,BKN,BKN,0.00,WeatherDisplay:10.37,2013-08-31 19:43:00,
2013-08-31 14:53:00,81.5,69.5,29.82,East,93,5.0,13.0,67,0.00,BKN,BKN,0.00,WeatherDisplay:10.37,2013-08-31 19:53:00,
2013-08-31 15:03:00,79.5,68.4,29.82,ENE,73,5.0,13.0,69,0.00,BKN,BKN,0.00,WeatherDisplay:10.37,2013-08-31 20:03:00,
2013-08-31 15:13:00,80.8,69.3,29.82,East,79,5.0,14.0,68,0.00,BKN,BKN,0.00,WeatherDisplay:10.37,2013-08-31 20:13:00,
2013-08-31 15:23:00,81.4,68.5,29.81,NE,49,5.0,10.0,65,0.00,BKN,BKN,0.00,WeatherDisplay:10.37,2013-08-31 20:23:00,
2013-08-31 15:33:00,82.9,69.9,29.81,NE,45,7.0,14.0,65,0.00,BKN,BKN,0.00,WeatherDisplay:10.37,2013-08-31 20:33:00,
2013-08-31 15:43:00,80.0,68.5,29.81,East,92,5.0,12.0,68,0.00,BKN,BKN,0.00,WeatherDisplay:10.37,2013-08-31 20:43:00,
2013-08-31 15:53:00,81.3,68.0,29.81,ENE,60,3.0,9.0,64,0.00,BKN,BKN,0.00,WeatherDisplay:10.37,2013-08-31 20:53:00,
2013-08-31 16:03:00,82.2,69.2,29.81,East,87,0.0,8.0,65,0.00,SCT,SCT,0.00,WeatherDisplay:10.37,2013-08-31 21:03:00,
2013-08-31 16:13:00,82.7,68.3,29.81,ENE,68,5.0,13.0,62,0.00,SCT,SCT,0.00,WeatherDisplay:10.37,2013-08-31 21:13:00,
2013-08-31 16:23:00,81.9,68.0,29.81,East,83,3.0,12.0,63,0.00,SCT,SCT,0.00,WeatherDisplay:10.37,2013-08-31 21:23:00,
2013-08-31 16:33:00,82.0,68.7,29.81,NNE,31,6.0,14.0,64,0.00,SCT,SCT,0.00,WeatherDisplay:10.37,2013-08-31 21:33:00,
2013-08-31 16:43:00,81.1,67.8,29.80,ENE,70,2.0,8.0,64,0.00,SCT,SCT,0.00,WeatherDisplay:10.37,2013-08-31 21:43:00,
2013-08-31 16:53:00,81.7,68.3,29.80,ENE,63,2.0,12.0,64,0.00,SCT,SCT,0.00,WeatherDisplay:10.37,2013-08-31 21:53:00,
2013-08-31 17:03:00,82.1,68.3,29.80,NE,40,2.0,9.0,63,0.00,FEW,FEW,0.00,WeatherDisplay:10.37,2013-08-31 22:03:00,
2013-08-31 17:13:00,82.5,68.2,29.80,ENE,71,2.0,8.0,62,0.00,FEW,FEW,0.00,WeatherDisplay:10.37,2013-08-31 22:13:00,
2013-08-31 17:23:00,81.9,67.6,29.80,NNE,30,3.0,10.0,62,0.00,FEW,FEW,0.00,WeatherDisplay:10.37,2013-08-31 22:23:00,
2013-08-31 17:33:00,82.2,67.4,29.80,East,92,2.0,8.0,61,0.00,FEW,FEW,0.00,WeatherDisplay:10.37,2013-08-31 22:33:00,
2013-08-31 17:43:00,82.0,67.3,29.80,East,98,3.0,9.0,61,0.00,FEW,FEW,0.00,WeatherDisplay:10.37,2013-08-31 22:43:00,
2013-08-31 17:53:00,81.3,66.6,29.80,SE,133,5.0,9.0,61,0.00,FEW,FEW,0.00,WeatherDisplay:10.37,2013-08-31 22:53:00,
2013-08-31 18:03:00,81.4,67.1,29.80,East,84,3.0,9.0,62,0.00,FEW,FEW,0.00,WeatherDisplay:10.37,2013-08-31 23:03:00,
2013-08-31 18:13:00,81.5,67.2,29.80,ENE,67,1.0,7.0,62,0.00,FEW,FEW,0.00,WeatherDisplay:10.37,2013-08-31 23:13:00,
2013-08-31 18:23:00,81.5,66.8,29.79,East,84,0.0,5.0,61,0.00,FEW,FEW,0.00,WeatherDisplay:10.37,2013-08-31 23:23:00,
2013-08-31 18:33:00,81.1,66.4,29.79,ESE,112,1.0,5.0,61,0.00,FEW,FEW,0.00,WeatherDisplay:10.37,2013-08-31 23:33:00,
2013-08-31 18:43:00,79.5,66.3,29.79,ENE,63,0.0,3.0,64,0.00,FEW,FEW,0.00,WeatherDisplay:10.37,2013-08-31 23:43:00,
2013-08-31 18:53:00,78.0,66.6,29.79,ENE,61,1.0,3.0,68,0.00,FEW,FEW,0.00,WeatherDisplay:10.37,2013-08-31 23:53:00,
2013-08-31 19:03:00,77.2,66.2,29.79,ESE,104,1.0,3.0,69,0.00,FEW,FEW,0.00,WeatherDisplay:10.37,2013-09-01 00:03:00,
2013-08-31 19:13:00,76.6,66.5,29.78,ESE,119,1.0,2.0,71,0.00,FEW,FEW,0.00,WeatherDisplay:10.37,2013-09-01 00:13:00,
2013-08-31 19:23:00,75.9,66.6,29.78,East,90,1.0,2.0,73,0.00,FEW,FEW,0.00,WeatherDisplay:10.37,2013-09-01 00:23:00,
2013-08-31 19:33:00,75.0,66.6,29.78,East,90,0.0,2.0,75,0.00,FEW,FEW,0.00,WeatherDisplay:10.37,2013-09-01 00:33:00,
2013-08-31 19:43:00,74.0,66.7,29.79,ESE,102,0.0,0.0,78,0.00,FEW,FEW,0.00,WeatherDisplay:10.37,2013-09-01 00:43:00,
2013-08-31 19:53:00,73.4,66.5,29.80,SE,135,0.0,0.0,79,0.00,FEW,FEW,0.00,WeatherDisplay:10.37,2013-09-01 00:53:00,
2013-08-31 20:03:00,72.9,67.0,29.81,ESE,110,1.0,2.0,82,0.00,CLR,CLR,0.00,WeatherDisplay:10.37,2013-09-01 01:03:00,
2013-08-31 20:13:00,72.6,67.2,29.81,SE,135,0.0,5.0,83,0.00,CLR,CLR,0.00,WeatherDisplay:10.37,2013-09-01 01:13:00,
2013-08-31 20:23:00,72.3,67.2,29.83,SE,135,1.0,2.0,84,0.00,CLR,CLR,0.00,WeatherDisplay:10.37,2013-09-01 01:23:00,
2013-08-31 20:33:00,72.0,67.5,29.83,SE,135,1.0,2.0,86,0.00,CLR,CLR,0.00,WeatherDisplay:10.37,2013-09-01 01:33:00,
2013-08-31 20:43:00,71.6,68.2,29.83,SE,135,1.0,3.0,89,0.00,CLR,CLR,0.00,WeatherDisplay:10.37,2013-09-01 01:43:00,
2013-08-31 20:53:00,71.4,68.3,29.84,South,169,0.0,2.0,90,0.00,CLR,CLR,0.00,WeatherDisplay:10.37,2013-09-01 01:53:00,
2013-08-31 21:03:00,71.2,68.5,29.84,SW,216,0.0,2.0,91,0.00,CLR,CLR,0.00,WeatherDisplay:10.37,2013-09-01 02:03:00,
2013-08-31 21:13:00,71.1,68.6,29.84,SE,136,0.0,2.0,92,0.00,CLR,CLR,0.00,WeatherDisplay:10.37,2013-09-01 02:13:00,
2013-08-31 21:23:00,70.7,68.9,29.84,SSE,156,1.0,5.0,94,0.00,CLR,CLR,0.00,WeatherDisplay:10.37,2013-09-01 02:23:00,
2013-08-31 21:33:00,70.5,69.0,29.84,SSE,158,0.0,2.0,95,0.00,CLR,CLR,0.00,WeatherDisplay:10.37,2013-09-01 02:33:00,
2013-08-31 21:43:00,70.2,69.0,29.84,SE,135,0.0,2.0,96,0.00,CLR,CLR,0.00,WeatherDisplay:10.37,2013-09-01 02:43:00,
2013-08-31 21:53:00,69.8,68.9,29.84,SE,135,1.0,3.0,97,0.00,CLR,CLR,0.00,WeatherDisplay:10.37,2013-09-01 02:53:00,
2013-08-31 22:03:00,69.6,69.0,29.84,SE,135,0.0,2.0,98,0.00,CLR,CLR,0.00,WeatherDisplay:10.37,2013-09-01 03:03:00,
2013-08-31 22:13:00,69.4,69.1,29.84,SE,135,3.0,6.0,99,0.00,CLR,CLR,0.00,WeatherDisplay:10.37,2013-09-01 03:13:00,
2013-08-31 22:23:00,69.6,69.3,29.83,ESE,117,1.0,3.0,99,0.00,CLR,CLR,0.00,WeatherDisplay:10.37,2013-09-01 03:23:00,
2013-08-31 22:33:00,69.3,69.0,29.83,East,90,0.0,1.0,99,0.00,CLR,CLR,0.00,WeatherDisplay:10.37,2013-09-01 03:33:00,
2013-08-31 22:43:00,69.1,68.8,29.83,SE,124,1.0,5.0,99,0.00,CLR,CLR,0.00,WeatherDisplay:10.37,2013-09-01 03:43:00,
2013-08-31 22:53:00,68.7,68.4,29.82,SE,135,0.0,2.0,99,0.00,CLR,CLR,0.00,WeatherDisplay:10.37,2013-09-01 03:53:00,
2013-08-31 23:03:00,68.2,67.9,29.83,SE,135,0.0,1.0,99,0.00,CLR,CLR,0.00,WeatherDisplay:10.37,2013-09-01 04:03:00,
2013-08-31 23:13:00,68.2,67.9,29.81,ESE,122,2.0,3.0,99,0.00,CLR,CLR,0.00,WeatherDisplay:10.37,2013-09-01 04:13:00,
2013-08-31 23:23:00,68.2,67.9,29.81,ESE,116,1.0,5.0,99,0.00,CLR,CLR,0.00,WeatherDisplay:10.37,2013-09-01 04:23:00,
2013-08-31 23:33:00,68.0,67.7,29.80,ESE,116,0.0,3.0,99,0.00,CLR,CLR,0.00,WeatherDisplay:10.37,2013-09-01 04:33:00,
2013-08-31 23:43:00,67.8,67.5,29.80,SE,132,5.0,8.0,99,0.00,CLR,CLR,0.00,WeatherDisplay:10.37,2013-09-01 04:43:00,
2013-08-31 23:53:00,67.8,67.5,29.80,SE,129,3.0,8.0,99,0.00,CLR,CLR,0.00,WeatherDisplay:10.37,2013-09-01 04:53:00,